STARLINK-36070

Last updated on Mon Dec 15 2025 00:02:12 GMT+0000 (Coordinated Universal Time)

1 66864U 25281S 25348.25003472 -.01266834 00000+0 -52637-2 0 9999 2 66864 43.0009 112.9359 0001395 266.4786 295.3228 15.87315119 1671
UTC large
Height (km)
Speed (km/s)
/
Latitude / Longitude
Inclination (degrees)
Orbital Period (minutes)
Azimuth
Elevation
Range (km)
Doppler Factor

Next 0 passes for location: London (51.5072 / 0.1276)

Sorry there are no passes over London.